Location: Dover
(48.8500°N, 53.9833°W)
Time: 17:08:57
(UTC+00:00)

Cosmos 1833 Rocket - Pass Details

Date: 14 November 2025
Orbit: 829 x 840 km, 71.0° (Epoch: 12 December)

Event Time Altitude Azimuth Distance (km) Brightness Sun altitude
Rises 20:52:48 0° 331° (NNW) 3,405 6.0 -9.4°
Reaches altitude 10° 20:55:15 10° 332° (NNW) 2,467 5.3 -9.8°
Maximum altitude 21:00:56 89° 253° (WSW) 848 2.7 -10.7°
Drops below altitude 10° 21:06:35 10° 154° (SSE) 2,450 5.0 -11.6°
Sets 21:09:00 0° 154° (SSE) 3,380 5.7 -12.0°
